Flag for U.S.A. Weather past 2 weeks in Nashville, Tennessee, U.S.A.

Now
52 °F

Passing clouds.


Feels Like: 50 °F
Forecast: 44 / 66 °F
Wind: 7 mph from Northwest

Location: Nashville International Airport

Current Time: Mar 30, 2015 at 8:34:12 AM

Latest Report: Mar 30, 2015 at 7:53 AM


Visibility: 10 mi

Pressure: 30.17 "Hg

Humidity: 80%

Dew point: 46 °F

Location of NashvilleLocation

Historic Weather in Nashville — Graph

°F

Nashville temperature yesterday

Maximum temperature yesterday: 62 °F (at 2:53 PM)
Minimum temperature yesterday: 25 °F (at 5:53 AM)
Average temperature yesterday: 46 °F

Past Weeks' High & Low Weather Summary

 TemperatureHumidityPressure
High79 °F (Mar 16, 3:53 PM)100% (Mar 15, 6:58 AM)30.36 "Hg (Mar 15, 6:58 AM)
Low25 °F (Mar 29, 5:53 AM)20% (Mar 29, 11:53 AM)29.82 "Hg (Mar 26, 11:53 AM)
Average54 °F62%30.10 "Hg
* Reported Mar 15 6:58 AM — Mar 30 6:53 AM, Nashville, Weather by CustomWeather, © 2015

Note: Actual official high and low records may vary slightly from our data, if they occured in-between our weather recording intervals... More about our weather records

Advertising

Nashville weather history for previous 24 hours

 ConditionsComfort  
Time TempWeatherWind HumidityBarometerVisibility
6:53 AM
Mon, Mar 30
47 °FScattered clouds.9 mph93%30.14 "Hg10 mi
5:53 AM47 °FClear.5 mph93%30.10 "Hg10 mi
4:53 AM48 °FClear.No wind93%30.07 "Hg8 mi
3:53 AM50 °FPassing clouds.No wind89%30.05 "Hg10 mi
2:53 AM50 °FOvercast.No wind93%30.06 "Hg10 mi
1:53 AM52 °FLight rain. Overcast.No wind80%30.09 "Hg9 mi
12:53 AM51 °FLight rain. Overcast.3 mph83%30.07 "Hg10 mi
11:53 PM
Sun, Mar 29
54 °FLight rain. Overcast.6 mph62%30.07 "Hg10 mi
10:53 PM55 °FOvercast.5 mph55%30.10 "Hg10 mi
9:53 PM56 °FOvercast.3 mph51%30.12 "Hg10 mi
8:53 PM56 °FPassing clouds.9 mph49%30.11 "Hg10 mi
7:53 PM56 °FPassing clouds.16 mph47%30.05 "Hg10 mi
6:53 PM58 °FPassing clouds.17 mph41%30.06 "Hg10 mi
5:53 PM60 °FScattered clouds.20 mph36%30.08 "Hg10 mi
4:53 PM62 °FPartly sunny.15 mph32%30.10 "Hg10 mi
3:53 PM62 °FOvercast.15 mph30%30.13 "Hg10 mi
2:53 PM62 °FPassing clouds.15 mph25%30.16 "Hg10 mi
1:53 PM60 °FScattered clouds.14 mph22%30.22 "Hg10 mi
12:53 PM56 °FScattered clouds.9 mph20%30.26 "Hg10 mi
11:53 AM54 °FSunny.15 mph20%30.28 "Hg10 mi
10:53 AM49 °FSunny.13 mph25%30.32 "Hg10 mi
9:53 AM45 °FPassing clouds.17 mph30%30.35 "Hg10 mi
8:53 AM39 °FPassing clouds.7 mph46%30.36 "Hg10 mi
Weather by CustomWeather, © 2015

See weather overviewHow to use our weather pages